User: anonymous   Login
Location: Auckland
(36.8670°S, 174.7670°E)
Time: 05:56:12
(UTC+12:00)
Language:

Transit 2A - Orbit

View from above orbital plane
View from above orbital plane
View from above satellite
View from above satellite

Ground track
Ground track

The orbit data is extracted from the following two-line orbital elements,

1    45U 60007A   19196.17310794 -.00000067  00000-0  10270-4 0  9998
2    45  66.6926 192.3169 0258860 203.4160 155.4982 14.33643688 74216
Epoch (UTC): 15 July 2019 04:09:16
Eccentricity: 0.0258860
inclination: 66.6926°
perigee height: 594 km
apogee height: 965 km
right ascension of ascending node: 192.3169°
argument of perigee: 203.4160°
revolutions per day: 14.33643688
mean anomaly at epoch: 155.4982°
orbit number at epoch: 7421

The dashed part of the orbit path shows where the satellite is in the earth's shadow,  

DLR